When you browse on this site, cookies collect data to enhance your experience and personalize the content and advertising you see.
Visit our Privacy Policy to learn more. By continuing to use the site, you agree to this use of cookies and data.
EN

Hourly Weather Patna

Today, 9 August, Sunday

Time Temperature Precipitation Wind Pressure Humidity
00:00 +36°C° 0 mm 2 mps 743 mmHg 60%
01:00 +35°C° 0.1 mm 2 mps 743 mmHg 62%
02:00 +34°C° 0.1 mm 1 mps 743 mmHg 64%
03:00 +34°C° 0.1 mm 1 mps 743 mmHg 66%
04:00 +33°C° 0.6 mm 1 mps 743 mmHg 68%
05:00 +33°C° 0.6 mm 1 mps 743 mmHg 70%
06:00 +32°C° 0 mm 1 mps 743 mmHg 73%
07:00 +33°C° 0.4 mm 1 mps 743 mmHg 69%
08:00 +34°C° 0.4 mm 1 mps 744 mmHg 64%
09:00 +36°C° 0.4 mm 2 mps 744 mmHg 60%
10:00 +37°C° 0.3 mm 2 mps 744 mmHg 57%
11:00 +38°C° 0.3 mm 3 mps 744 mmHg 53%
12:00 +38°C° 0 mm 4 mps 744 mmHg 54%
13:00 +38°C° 2 mm 4 mps 743 mmHg 54%
14:00 +38°C° 2 mm 4 mps 743 mmHg 54%
15:00 +40°C° 2 mm 4 mps 742 mmHg 54%
16:00 +38°C° 0.5 mm 4 mps 742 mmHg 55%
17:00 +38°C° 0.5 mm 4 mps 742 mmHg 56%
18:00 +37°C° 0 mm 4 mps 742 mmHg 60%
19:00 +36°C° 0.3 mm 4 mps 742 mmHg 64%
20:00 +35°C° 0.3 mm 4 mps 743 mmHg 68%
21:00 +34°C° 0.3 mm 4 mps 744 mmHg 71%
22:00 +34°C° 0.2 mm 4 mps 744 mmHg 73%
23:00 +33°C° 0.2 mm 4 mps 744 mmHg 74%

Tomorrow, 10 August, Monday

Time Temperature Precipitation Wind Pressure Humidity
00:00 +33°C° 0.2 mm 4 mps 744 mmHg 75%
01:00 +33°C° 0.5 mm 4 mps 744 mmHg 76%
02:00 +33°C° 0.5 mm 4 mps 744 mmHg 77%
03:00 +31°C° 0.5 mm 3 mps 744 mmHg 79%
04:00 +31°C° 0.2 mm 3 mps 744 mmHg 80%
05:00 +31°C° 0.2 mm 3 mps 744 mmHg 81%
06:00 +30°C° 0.2 mm 3 mps 744 mmHg 82%
07:00 +31°C° 0 mm 3 mps 745 mmHg 77%
08:00 +33°C° 0 mm 3 mps 745 mmHg 72%
09:00 +34°C° 0 mm 4 mps 746 mmHg 68%
10:00 +35°C° 0 mm 4 mps 745 mmHg 63%
11:00 +37°C° 0 mm 4 mps 745 mmHg 58%
12:00 +38°C° 0 mm 4 mps 745 mmHg 53%
13:00 +38°C° 0 mm 4 mps 744 mmHg 52%
14:00 +38°C° 0 mm 4 mps 743 mmHg 51%
15:00 +40°C° 0 mm 4 mps 743 mmHg 51%
16:00 +38°C° 0 mm 4 mps 742 mmHg 53%
17:00 +38°C° 0 mm 4 mps 742 mmHg 56%
18:00 +37°C° 0 mm 4 mps 742 mmHg 58%
19:00 +36°C° 0 mm 4 mps 742 mmHg 61%
20:00 +35°C° 0 mm 4 mps 743 mmHg 64%
21:00 +35°C° 0 mm 4 mps 743 mmHg 67%
22:00 +34°C° 1 mm 4 mps 743 mmHg 70%
23:00 +34°C° 1 mm 4 mps 743 mmHg 73%

Day after tomorrow, 11 August, Tuesday

Time Temperature Precipitation Wind Pressure Humidity
00:00 +33°C° 1 mm 5 mps 743 mmHg 76%
01:00 +32°C° 2.2 mm 4 mps 743 mmHg 79%
02:00 +32°C° 2.2 mm 4 mps 743 mmHg 83%
03:00 +30°C° 2.2 mm 4 mps 743 mmHg 86%
04:00 +30°C° 3.1 mm 4 mps 743 mmHg 87%
05:00 +29°C° 3.1 mm 3 mps 743 mmHg 88%
06:00 +29°C° 3.1 mm 3 mps 743 mmHg 89%
07:00 +30°C° 0.7 mm 2 mps 743 mmHg 87%
08:00 +30°C° 0.7 mm 2 mps 744 mmHg 85%
09:00 +31°C° 0.7 mm 2 mps 744 mmHg 83%
10:00 +32°C° 1.1 mm 2 mps 744 mmHg 79%
11:00 +34°C° 1.1 mm 2 mps 744 mmHg 74%
12:00 +34°C° 1.1 mm 2 mps 744 mmHg 70%
13:00 +35°C° 0.6 mm 3 mps 743 mmHg 67%
14:00 +36°C° 0.6 mm 3 mps 743 mmHg 64%
15:00 +36°C° 0.6 mm 3 mps 742 mmHg 61%
16:00 +36°C° 0.2 mm 3 mps 742 mmHg 62%
17:00 +36°C° 0.2 mm 2 mps 742 mmHg 63%
18:00 +36°C° 0.2 mm 2 mps 742 mmHg 63%
19:00 +35°C° 2.5 mm 3 mps 743 mmHg 69%
20:00 +34°C° 2.5 mm 4 mps 743 mmHg 75%
21:00 +33°C° 2.5 mm 4 mps 744 mmHg 80%
22:00 +32°C° 3.9 mm 4 mps 744 mmHg 82%
23:00 +31°C° 3.9 mm 3 mps 744 mmHg 83%

12 August, Wednesday

Time Temperature Precipitation Wind Pressure Humidity
00:00 +31°C° 3.9 mm 3 mps 744 mmHg 84%
01:00 +30°C° 2.5 mm 4 mps 744 mmHg 85%
02:00 +30°C° 2.5 mm 4 mps 743 mmHg 87%
03:00 +30°C° 2.5 mm 4 mps 743 mmHg 88%
04:00 +30°C° 2.5 mm 5 mps 743 mmHg 89%
05:00 +29°C° 2.5 mm 5 mps 743 mmHg 89%
06:00 +29°C° 2.5 mm 6 mps 743 mmHg 90%
07:00 +29°C° 1.4 mm 6 mps 744 mmHg 89%
08:00 +30°C° 1.4 mm 5 mps 744 mmHg 89%
09:00 +30°C° 1.4 mm 5 mps 745 mmHg 88%
10:00 +32°C° 0.3 mm 5 mps 745 mmHg 83%
11:00 +33°C° 0.3 mm 5 mps 745 mmHg 79%
12:00 +34°C° 0.3 mm 5 mps 745 mmHg 74%
13:00 +34°C° 1.1 mm 5 mps 745 mmHg 72%
14:00 +35°C° 1.1 mm 5 mps 744 mmHg 70%
15:00 +35°C° 1.1 mm 6 mps 743 mmHg 69%
16:00 +35°C° 0.4 mm 6 mps 743 mmHg 70%
17:00 +34°C° 0.4 mm 5 mps 743 mmHg 72%
18:00 +34°C° 0.4 mm 5 mps 742 mmHg 73%
19:00 +33°C° 0 mm 5 mps 743 mmHg 76%
20:00 +33°C° 0 mm 4 mps 743 mmHg 79%
21:00 +32°C° 0 mm 4 mps 744 mmHg 82%
22:00 +32°C° 0 mm 4 mps 744 mmHg 83%
23:00 +30°C° 0 mm 4 mps 744 mmHg 84%

13 August, Thursday

Time Temperature Precipitation Wind Pressure Humidity
00:00 +30°C° 0 mm 4 mps 744 mmHg 85%
01:00 +30°C° 0.3 mm 4 mps 744 mmHg 86%
02:00 +29°C° 0.3 mm 4 mps 743 mmHg 87%
03:00 +29°C° 0.3 mm 4 mps 743 mmHg 88%
04:00 +29°C° 2.1 mm 3 mps 743 mmHg 89%
05:00 +29°C° 2.1 mm 3 mps 743 mmHg 90%
06:00 +28°C° 2.1 mm 3 mps 743 mmHg 92%
07:00 +29°C° 0.5 mm 3 mps 743 mmHg 88%
08:00 +30°C° 0.5 mm 2 mps 744 mmHg 85%
09:00 +31°C° 0.5 mm 2 mps 744 mmHg 81%
10:00 +34°C° 2.2 mm 2 mps 744 mmHg 75%
11:00 +35°C° 2.2 mm 2 mps 744 mmHg 69%
12:00 +37°C° 2.2 mm 2 mps 744 mmHg 62%
13:00 +36°C° 2 mm 3 mps 743 mmHg 66%
14:00 +35°C° 2 mm 3 mps 742 mmHg 70%
15:00 +34°C° 2 mm 3 mps 742 mmHg 74%
16:00 +34°C° 0.6 mm 3 mps 741 mmHg 75%
17:00 +32°C° 0.6 mm 2 mps 741 mmHg 76%
18:00 +32°C° 0.6 mm 1 mps 741 mmHg 76%
19:00 +32°C° 0.6 mm 1 mps 741 mmHg 78%
20:00 +31°C° 0.6 mm 1 mps 742 mmHg 80%
21:00 +31°C° 0.6 mm 1 mps 743 mmHg 82%
22:00 +31°C° 2.1 mm 1 mps 743 mmHg 84%
23:00 +30°C° 2.1 mm 1 mps 743 mmHg 85%

14 August, Friday

Time Temperature Precipitation Wind Pressure Humidity
00:00 +30°C° 2.1 mm 2 mps 743 mmHg 87%
01:00 +29°C° 3.4 mm 2 mps 743 mmHg 89%
02:00 +29°C° 3.4 mm 2 mps 742 mmHg 91%
03:00 +29°C° 3.4 mm 2 mps 742 mmHg 93%
04:00 +29°C° 1 mm 2 mps 742 mmHg 92%
05:00 +29°C° 1 mm 3 mps 742 mmHg 91%
06:00 +29°C° 1 mm 3 mps 742 mmHg 90%
07:00 +30°C° 0.9 mm 3 mps 743 mmHg 86%
08:00 +31°C° 0.9 mm 3 mps 743 mmHg 81%
09:00 +33°C° 0.9 mm 3 mps 744 mmHg 77%
10:00 +34°C° 1.3 mm 3 mps 744 mmHg 72%
11:00 +35°C° 1.3 mm 4 mps 744 mmHg 67%
12:00 +36°C° 1.3 mm 4 mps 743 mmHg 62%
13:00 +36°C° 1.7 mm 4 mps 743 mmHg 63%
14:00 +36°C° 1.7 mm 4 mps 742 mmHg 65%
15:00 +36°C° 1.7 mm 5 mps 741 mmHg 66%
16:00 +35°C° 1.3 mm 4 mps 741 mmHg 67%
17:00 +35°C° 1.3 mm 3 mps 741 mmHg 68%
18:00 +35°C° 1.3 mm 3 mps 740 mmHg 70%
19:00 +35°C° 0.4 mm 3 mps 741 mmHg 73%
20:00 +34°C° 0.4 mm 3 mps 741 mmHg 76%
21:00 +33°C° 0.4 mm 4 mps 742 mmHg 79%
22:00 +33°C° 0.2 mm 4 mps 742 mmHg 80%
23:00 +32°C° 0.2 mm 4 mps 742 mmHg 82%
Show more